Tracking 18980 objects as of 21-Feb-2018
HD Live streaming from Space Station
objects crossing your sky now

PSLV R/B

Track PSLV R/B now!
10-day predictions


NORAD ID: 42796
Int'l Code: 2017-036AH
Perigee: 307.3 km
Apogee: 335.3 km
Inclination: 94.6 °
Period: 90.8 minutes
Semi major axis: 6692 km
RCS: Unknown
Launch date: June 23, 2017
Source: India (IND)
Launch site: SRIHARIKOTA (SRI)

Note: This is a ROCKET BODY
aabbcc
Your satellite tracking list
Your tracking list is empty




NASA's NSSDC Master Catalog

Two Line Element Set (TLE):
1 42796U 17036AH  18051.92317061 +.00043178 +14391-5 +17684-3 0  9994
2 42796 094.5992 036.9337 0020881 066.4834 293.8634 15.85773295038108
Source of the keplerian elements: AFSPC